TimeMDT,TemperatureF,Dew PointF,Humidity,Sea Level PressureIn,VisibilityMPH,Wind Direction,Wind SpeedMPH,Gust SpeedMPH,PrecipitationIn,Events,Conditions,WindDirDegrees,DateUTC
12:53 AM,30.0,21.0,69,30.21,10.0,East,11.5,-,N/A,,Overcast,90,2012-10-04 06:53:00
1:53 AM,28.9,19.9,69,30.21,10.0,East,6.9,-,N/A,,Overcast,90,2012-10-04 07:53:00
2:53 AM,27.0,19.9,75,30.23,10.0,East,10.4,-,N/A,,Scattered Clouds,80,2012-10-04 08:53:00
3:53 AM,25.0,19.0,78,30.27,10.0,East,6.9,-,N/A,,Clear,80,2012-10-04 09:53:00
4:53 AM,21.9,17.1,82,30.31,10.0,ENE,4.6,-,N/A,,Clear,70,2012-10-04 10:53:00
5:25 AM,23.0,17.6,80,30.31,10.0,ENE,5.8,-,N/A,,Mostly Cloudy,60,2012-10-04 11:25:00
5:44 AM,21.2,15.8,80,30.31,10.0,NW,3.5,-,N/A,,Scattered Clouds,320,2012-10-04 11:44:00
5:53 AM,21.0,16.0,81,30.34,10.0,NNW,4.6,-,N/A,,Partly Cloudy,340,2012-10-04 11:53:00
6:53 AM,21.0,17.1,85,30.35,10.0,Calm,Calm,-,N/A,,Clear,0,2012-10-04 12:53:00
7:53 AM,24.1,18.0,77,30.34,10.0,ENE,11.5,-,N/A,,Clear,60,2012-10-04 13:53:00
8:53 AM,28.9,19.0,67,30.33,10.0,ENE,10.4,-,N/A,,Clear,60,2012-10-04 14:53:00
9:53 AM,33.1,19.0,56,30.30,10.0,ENE,9.2,-,N/A,,Clear,70,2012-10-04 15:53:00
10:53 AM,37.9,18.0,45,30.26,10.0,ENE,9.2,17.3,N/A,,Clear,60,2012-10-04 16:53:00
11:53 AM,41.0,19.0,41,30.23,10.0,Variable,6.9,-,N/A,,Clear,0,2012-10-04 17:53:00
12:53 PM,43.0,18.0,37,30.20,10.0,NE,4.6,-,N/A,,Clear,50,2012-10-04 18:53:00
1:53 PM,48.9,18.0,29,30.15,10.0,Variable,6.9,-,N/A,,Clear,0,2012-10-04 19:53:00
2:53 PM,48.9,17.1,28,30.13,10.0,Calm,Calm,-,N/A,,Clear,0,2012-10-04 20:53:00
3:53 PM,48.9,15.1,26,30.12,10.0,Calm,Calm,-,N/A,,Clear,0,2012-10-04 21:53:00
4:53 PM,51.1,15.1,24,30.11,10.0,NNE,5.8,-,N/A,,Clear,20,2012-10-04 22:53:00
5:53 PM,50.0,15.1,25,30.12,10.0,NNW,5.8,-,N/A,,Clear,330,2012-10-04 23:53:00
6:53 PM,43.0,17.1,35,30.17,10.0,ENE,15.0,-,N/A,,Clear,70,2012-10-05 00:53:00
7:53 PM,39.0,18.0,43,30.18,10.0,ENE,13.8,17.3,N/A,,Clear,70,2012-10-05 01:53:00
8:53 PM,36.0,19.0,50,30.16,10.0,ENE,18.4,25.3,N/A,,Clear,60,2012-10-05 02:53:00
9:53 PM,35.1,19.9,54,30.14,10.0,NE,18.4,24.2,N/A,,Clear,50,2012-10-05 03:53:00
10:53 PM,33.1,19.9,59,30.14,10.0,NE,15.0,-,N/A,,Scattered Clouds,50,2012-10-05 04:53:00
11:53 PM,32.0,19.9,61,30.10,10.0,ENE,16.1,26.5,N/A,,Partly Cloudy,60,2012-10-05 05:53:00